Weather in Nekouz

Russia / Yaroslavl Oblast     57°54′43″N   37°59′48″E
temp.,
°C
wind,
m/s
gust,
m/s
humid.,
%
clouds,
%
prec.,
mm/h
press.,
hPa
HPBL,
m
20 june, sun
sun2000:00+18wsw37825 0.0 1022118
03:00+17sw37855 0.0 1022109
06:00+19sw37790 0.0 1022183
09:00+25sw35570 0.0 1021545
12:00+28sw44460 0.0 10211432
15:00+29ssw45430 0.0 10201704
18:00+28ssw35510 0.0 10191196
21:00+22ssw22791 0.0 101932
21 june, mon
mon2100:00+19sw37790 0.0 1020113
03:00+19sw36854 0.0 102098
06:00+20sw27856 0.1 1020180
09:00+26sw346170 0.1 1020540
12:00+28ssw345670 0.0 10201127
15:00+29ssw4449100 0.0 10201445
18:00+28ssw3561100 0.0 1020579
21:00+22ssw23794 0.0 102050
22 june, tue
tue2200:00+19sw237436 0.0 102042
03:00+17sw228115 0.0 102134
06:00+20ssw237932 0.0 1021106
09:00+26s23605 0.0 1021528
12:00+29s33461 0.0 10211333
15:00+30ssw334153 0.0 10201504
18:00+29ssw23520 0.0 1020916
21:00+24sse11710 0.0 101911
23 june, wed
wed2300:00+21s22831 0.0 102019
03:00+20sw228682 0.0 102132
06:00+22sw2577100 0.0 1021139
09:00+28sw235627 0.0 1021515
12:00+31ssw444355 0.0 10211550
15:00+32ssw44415 0.0 10201689
18:00+31ssw23495 0.0 1020574
21:00+25ssw22645 0.0 102017
24 june, thu
thu2400:00+22ssw33745 0.0 102054
03:00+20sw23735 0.1 102151
06:00+22sw257619 0.0 1020122
09:00+29sw34546 0.0 1020495
12:00+32sw34406 0.0 10201710
15:00+33ssw44386 0.0 10192089
18:00+31ssw35483 0.0 1018738
21:00+25ssw357223 0.0 101788